| time (UTC) | temp F | wind direction | speed MPH | gust MPH | rain 1hr in | rain 24hr in | rain mn in | humidity % | barometer mb |
| 20260506160536 | 68 | 86 | 8.0 | 12.0 | 0.00 | 0.11 | 0.11 | 80 | 1007.1 |
| 20260506160036 | 68 | 77 | 7.0 | 12.0 | 0.00 | 0.11 | 0.11 | 81 | 1007.1 |
| 20260506155539 | 69 | 87 | 8.0 | 13.0 | 0.00 | 0.11 | 0.11 | 82 | 1007.0 |
| 20260506155036 | 69 | 76 | 10.0 | 14.0 | 0.00 | 0.11 | 0.11 | 80 | 1007.0 |
| 20260506154536 | 69 | 82 | 6.0 | 12.0 | 0.00 | 0.11 | 0.11 | 77 | 1007.0 |
| 20260506154036 | 69 | 85 | 6.0 | 13.0 | 0.00 | 0.11 | 0.11 | 80 | 1007.1 |
| 20260506153036 | 70 | 38 | 6.0 | 9.0 | 0.00 | 0.11 | 0.11 | 82 | 1007.0 |
| 20260506151536 | 69 | 45 | 9.0 | 13.0 | 0.00 | 0.11 | 0.11 | 83 | 1007.0 |
| 20260506151036 | 68 | 86 | 10.0 | 12.0 | 0.00 | 0.11 | 0.11 | 83 | 1007.0 |
| 20260506150536 | 68 | 67 | 10.0 | 13.0 | 0.00 | 0.11 | 0.11 | 83 | 1007.1 |
| 20260506145037 | 68 | 64 | 8.0 | 12.0 | 0.00 | 0.11 | 0.11 | 84 | 1007.1 |
| 20260506144551 | 68 | 68 | 7.0 | 12.0 | 0.00 | 0.11 | 0.11 | 84 | 1007.2 |
| 20260506143537 | 68 | 76 | 7.0 | 10.0 | 0.00 | 0.11 | 0.11 | 85 | 1007.4 |
| 20260506143036 | 68 | 50 | 6.0 | 10.0 | 0.00 | 0.11 | 0.11 | 84 | 1007.5 |
| 20260506142536 | 69 | 88 | 8.0 | 15.0 | 0.00 | 0.11 | 0.11 | 83 | 1007.5 |
| 20260506142039 | 70 | 99 | 7.0 | 15.0 | 0.00 | 0.11 | 0.11 | 83 | 1007.4 |
| 20260506141035 | 69 | 65 | 10.0 | 13.0 | 0.00 | 0.11 | 0.11 | 83 | 1007.3 |
| 20260506140535 | 69 | 57 | 7.0 | 12.0 | 0.00 | 0.11 | 0.11 | 85 | 1007.5 |
| 20260506140035 | 68 | 78 | 8.0 | 10.0 | 0.00 | 0.11 | 0.11 | 84 | 1007.7 |
| 20260506135038 | 69 | 68 | 6.0 | 12.0 | 0.00 | 0.11 | 0.11 | 83 | 1007.8 |
| 20260506134536 | 69 | 67 | 6.0 | 9.0 | 0.00 | 0.11 | 0.11 | 83 | 1007.8 |
| 20260506134035 | 69 | 67 | 6.0 | 12.0 | 0.00 | 0.11 | 0.11 | 83 | 1007.9 |
| 20260506133536 | 69 | 50 | 9.0 | 12.0 | 0.00 | 0.11 | 0.11 | 83 | 1007.9 |
| 20260506133037 | 69 | 91 | 7.0 | 12.0 | 0.00 | 0.11 | 0.11 | 84 | 1008.0 |
| 20260506132539 | 69 | 68 | 7.0 | 13.0 | 0.00 | 0.11 | 0.11 | 85 | 1008.1 |
| 20260506132036 | 68 | 61 | 6.0 | 8.0 | 0.00 | 0.11 | 0.11 | 85 | 1008.1 |
| 20260506131536 | 68 | 96 | 7.0 | 10.0 | 0.00 | 0.11 | 0.11 | 83 | 1008.0 |
| 20260506130539 | 67 | 66 | 5.0 | 7.0 | 0.00 | 0.11 | 0.11 | 87 | 1008.2 |
| 20260506130035 | 67 | 39 | 6.0 | 9.0 | 0.00 | 0.11 | 0.11 | 86 | 1008.3 |
| 20260506125536 | 67 | 68 | 4.0 | 10.0 | 0.00 | 0.11 | 0.11 | 87 | 1008.4 |
| 20260506125039 | 66 | 64 | 7.0 | 10.0 | 0.00 | 0.11 | 0.11 | 88 | 1008.4 |
| 20260506124537 | 65 | 74 | 7.0 | 10.0 | 0.00 | 0.11 | 0.11 | 87 | 1008.5 |
| 20260506124037 | 66 | 81 | 4.0 | 10.0 | 0.00 | 0.11 | 0.11 | 87 | 1008.5 |
| 20260506123535 | 66 | 77 | 6.0 | 12.0 | 0.00 | 0.11 | 0.11 | 87 | 1008.5 |
| 20260506123054 | 66 | 61 | 6.0 | 10.0 | 0.00 | 0.11 | 0.11 | 87 | 1008.4 |
| 20260506122535 | 66 | 91 | 7.0 | 13.0 | 0.00 | 0.11 | 0.11 | 88 | 1008.5 |
| 20260506122036 | 66 | 92 | 7.0 | 12.0 | 0.00 | 0.11 | 0.11 | 87 | 1008.5 |
| 20260506121535 | 66 | 71 | 7.0 | 12.0 | 0.00 | 0.11 | 0.11 | 88 | 1008.6 |
| 20260506121036 | 65 | 99 | 7.0 | 12.0 | 0.00 | 0.11 | 0.11 | 88 | 1008.6 |
| 20260506120535 | 65 | 90 | 12.0 | 16.0 | 0.00 | 0.11 | 0.11 | 87 | 1008.5 |
| 20260506120035 | 65 | 119 | 7.0 | 15.0 | 0.00 | 0.11 | 0.11 | 87 | 1008.5 |
| 20260506115536 | 66 | 87 | 7.0 | 12.0 | 0.00 | 0.11 | 0.11 | 88 | 1008.5 |
| 20260506115035 | 65 | 54 | 6.0 | 13.0 | 0.00 | 0.11 | 0.11 | 87 | 1008.5 |
| 20260506114535 | 66 | 88 | 11.0 | 16.0 | 0.00 | 0.11 | 0.11 | 87 | 1008.5 |
| 20260506114035 | 66 | 70 | 9.0 | 16.0 | 0.00 | 0.11 | 0.11 | 86 | 1008.4 |
| 20260506113035 | 65 | 99 | 10.0 | 17.0 | 0.00 | 0.11 | 0.11 | 87 | 1008.3 |
| 20260506112035 | 65 | 96 | 13.0 | 17.0 | 0.00 | 0.11 | 0.11 | 87 | 1008.5 |
| 20260506111537 | 65 | 110 | 12.0 | 21.0 | 0.00 | 0.11 | 0.11 | 88 | 1008.5 |
| 20260506110536 | 64 | 102 | 9.0 | 15.0 | 0.00 | 0.11 | 0.11 | 90 | 1008.6 |
| 20260506110052 | 64 | 90 | 7.0 | 15.0 | 0.00 | 0.11 | 0.11 | 90 | 1008.6 |
| 20260506105535 | 63 | 73 | 12.0 | 17.0 | 0.00 | 0.11 | 0.11 | 90 | 1008.6 |
| 20260506105036 | 64 | 92 | 10.0 | 16.0 | 0.00 | 0.11 | 0.11 | 89 | 1008.8 |
| 20260506104535 | 64 | 112 | 8.0 | 14.0 | 0.00 | 0.11 | 0.11 | 89 | 1008.8 |
| 20260506104035 | 64 | 88 | 9.0 | 15.0 | 0.00 | 0.11 | 0.11 | 89 | 1008.8 |
| 20260506103536 | 64 | 94 | 10.0 | 16.0 | 0.00 | 0.11 | 0.11 | 91 | 1008.8 |
| 20260506103036 | 63 | 90 | 13.0 | 16.0 | 0.00 | 0.11 | 0.11 | 91 | 1008.9 |
| 20260506102536 | 63 | 84 | 9.0 | 13.0 | 0.00 | 0.11 | 0.11 | 92 | 1008.9 |
| 20260506102035 | 63 | 89 | 10.0 | 14.0 | 0.00 | 0.11 | 0.11 | 91 | 1009.0 |
| 20260506101535 | 63 | 97 | 9.0 | 15.0 | 0.00 | 0.11 | 0.11 | 91 | 1009.0 |
| 20260506100537 | 63 | 80 | 11.0 | 16.0 | 0.00 | 0.11 | 0.11 | 92 | 1008.9 |
| 20260506100035 | 63 | 80 | 11.0 | 15.0 | 0.00 | 0.11 | 0.11 | 92 | 1009.0 |
| 20260506095535 | 62 | 66 | 10.0 | 14.0 | 0.00 | 0.11 | 0.11 | 92 | 1008.9 |
| 20260506095035 | 62 | 68 | 10.0 | 14.0 | 0.00 | 0.11 | 0.11 | 93 | 1008.9 |
| 20260506094035 | 62 | 65 | 7.0 | 10.0 | 0.00 | 0.13 | 0.11 | 94 | 1009.2 |
| 20260506093535 | 62 | 83 | 8.0 | 12.0 | 0.00 | 0.13 | 0.11 | 94 | 1009.2 |
| 20260506093035 | 61 | 71 | 7.0 | 12.0 | 0.00 | 0.13 | 0.11 | 94 | 1009.1 |
| 20260506092535 | 61 | 86 | 9.0 | 15.0 | 0.00 | 0.14 | 0.11 | 94 | 1009.1 |
| 20260506092035 | 61 | 78 | 6.0 | 12.0 | 0.00 | 0.14 | 0.11 | 94 | 1009.2 |
| 20260506091035 | 61 | 71 | 6.0 | 14.0 | 0.00 | 0.15 | 0.11 | 94 | 1009.2 |
| 20260506090535 | 61 | 60 | 8.0 | 12.0 | 0.00 | 0.15 | 0.11 | 95 | 1009.2 |
| 20260506090035 | 61 | 75 | 7.0 | 12.0 | 0.00 | 0.16 | 0.11 | 95 | 1009.2 |
| 20260506085535 | 61 | 63 | 5.0 | 8.0 | 0.00 | 0.17 | 0.11 | 95 | 1009.0 |
| 20260506085035 | 61 | 72 | 6.0 | 8.0 | 0.00 | 0.17 | 0.11 | 95 | 1009.2 |
| 20260506084542 | 61 | 91 | 6.0 | 12.0 | 0.00 | 0.17 | 0.11 | 95 | 1009.2 |
| 20260506084035 | 61 | 75 | 8.0 | 13.0 | 0.00 | 0.18 | 0.11 | 95 | 1009.2 |
| 20260506083537 | 61 | 69 | 7.0 | 10.0 | 0.00 | 0.19 | 0.11 | 96 | 1009.2 |
| 20260506083035 | 61 | 60 | 5.0 | 9.0 | 0.00 | 0.20 | 0.11 | 96 | 1009.2 |
| 20260506082035 | 60 | 92 | 6.0 | 8.0 | 0.00 | 0.20 | 0.11 | 96 | 1009.1 |
| 20260506081534 | 60 | 91 | 6.0 | 12.0 | 0.00 | 0.21 | 0.11 | 97 | 1009.1 |
| 20260506081035 | 60 | 86 | 5.0 | 12.0 | 0.00 | 0.22 | 0.11 | 96 | 1009.2 |
| 20260506080535 | 60 | 94 | 6.0 | 9.0 | 0.00 | 0.22 | 0.11 | 97 | 1009.1 |
| 20260506073034 | 60 | 109 | 8.0 | 12.0 | 0.00 | 0.25 | 0.11 | 98 | 1009.1 |
| 20260506072035 | 60 | 76 | 5.0 | 7.0 | 0.01 | 0.26 | 0.11 | 99 | 1009.1 |
| 20260506071538 | 60 | 110 | 5.0 | 8.0 | 0.01 | 0.26 | 0.11 | 99 | 1009.1 |
| 20260506071035 | 59 | 80 | 3.0 | 10.0 | 0.01 | 0.26 | 0.11 | 99 | 1009.1 |
| 20260506062034 | 58 | 78 | 6.0 | 10.0 | 0.02 | 0.26 | 0.10 | 99 | 1009.3 |
| 20260506061035 | 58 | 53 | 3.0 | 5.0 | 0.02 | 0.26 | 0.10 | 99 | 1009.6 |
| 20260506060535 | 58 | 42 | 3.0 | 7.0 | 0.03 | 0.26 | 0.10 | 99 | 1009.4 |
| 20260506051034 | 57 | 110 | 5.0 | 8.0 | 0.05 | 0.24 | 0.08 | 98 | 1009.8 |
| 20260506050536 | 57 | 99 | 7.0 | 12.0 | 0.04 | 0.23 | 0.07 | 98 | 1009.8 |
| 20260506044534 | 57 | 100 | 6.0 | 8.0 | 0.04 | 0.20 | 0.05 | 98 | 1009.7 |
| 20260506043533 | 57 | 118 | 5.0 | 13.0 | 0.04 | 0.20 | 0.04 | 98 | 1009.7 |
| 20260506043034 | 57 | 104 | 7.0 | 12.0 | 0.03 | 0.19 | 0.03 | 98 | 1009.6 |
| 20260506042535 | 57 | 100 | 7.0 | 12.0 | 0.03 | 0.19 | 0.03 | 98 | 1009.4 |
| 20260506042034 | 57 | 103 | 9.0 | 16.0 | 0.03 | 0.19 | 0.03 | 98 | 1009.4 |
| 20260506041534 | 57 | 105 | 9.0 | 15.0 | 0.03 | 0.19 | 0.03 | 98 | 1009.5 |
| 20260506041034 | 57 | 112 | 8.0 | 15.0 | 0.03 | 0.19 | 0.03 | 98 | 1009.5 |
| 20260506040534 | 57 | 103 | 9.0 | 15.0 | 0.03 | 0.19 | 0.03 | 98 | 1009.4 |
| 20260506040035 | 56 | 102 | 9.0 | 12.0 | 0.03 | 0.19 | 0.03 | 98 | 1009.4 |
| 20260506035034 | 56 | 103 | 8.0 | 15.0 | 0.02 | 0.17 | 0.02 | 98 | 1009.4 |
| 20260506034534 | 56 | 88 | 7.0 | 14.0 | 0.01 | 0.17 | 0.01 | 98 | 1009.5 |
| 20260506034033 | 56 | 89 | 6.0 | 12.0 | 0.00 | 0.16 | 0.00 | 98 | 1009.6 |
| 20260506033537 | 56 | 100 | 5.0 | 9.0 | 0.00 | 0.16 | 0.00 | 98 | 1009.6 |
| 20260506033035 | 56 | 84 | 6.0 | 10.0 | 0.00 | 0.16 | 0.00 | 98 | 1009.5 |
| 20260506032534 | 56 | 80 | 7.0 | 8.0 | 0.00 | 0.16 | 0.00 | 98 | 1009.4 |
| 20260506031533 | 56 | 96 | 5.0 | 7.0 | 0.00 | 0.16 | 0.00 | 98 | 1009.5 |
| 20260506031034 | 56 | 73 | 6.0 | 7.0 | 0.00 | 0.16 | 0.00 | 98 | 1009.5 |
| 20260506030034 | 55 | 91 | 3.0 | 7.0 | 0.00 | 0.16 | 0.00 | 98 | 1009.8 |
| 20260506025535 | 55 | 58 | 2.0 | 5.0 | 0.00 | 0.16 | 0.00 | 98 | 1009.8 |
| 20260506025033 | 55 | 61 | 4.0 | 7.0 | 0.00 | 0.16 | 0.00 | 98 | 1009.8 |
| 20260506024533 | 55 | 63 | 3.0 | 7.0 | 0.00 | 0.16 | 0.00 | 98 | 1009.9 |
| 20260506024034 | 55 | 80 | 3.0 | 3.0 | 0.00 | 0.16 | 0.00 | 98 | 1010.1 |
| 20260506023035 | 55 | 72 | 2.0 | 3.0 | 0.00 | 0.16 | 0.00 | 98 | 1010.3 |
| 20260506022534 | 55 | 69 | 2.0 | 3.0 | 0.00 | 0.16 | 0.00 | 98 | 1010.2 |
| 20260506021534 | 55 | 161 | 1.0 | 2.0 | 0.00 | 0.16 | 0.00 | 98 | 1010.5 |
| 20260506021033 | 55 | 161 | 0.0 | 1.0 | 0.00 | 0.16 | 0.00 | 98 | 1010.6 |
| 20260506020534 | 55 | 161 | 0.0 | 0.0 | 0.00 | 0.16 | 0.00 | 98 | 1010.6 |
| 20260506020034 | 55 | 161 | 0.0 | 0.0 | 0.00 | 0.16 | 0.00 | 98 | 1010.6 |
| 20260506015533 | 55 | 161 | 0.0 | 0.0 | 0.00 | 0.16 | 0.00 | 98 | 1010.4 |
| 20260506015033 | 55 | 161 | 0.0 | 0.0 | 0.00 | 0.16 | 0.00 | 98 | 1010.4 |
| 20260506014533 | 55 | 161 | 0.0 | 2.0 | 0.00 | 0.16 | 0.00 | 98 | 1010.4 |
| 20260506013533 | 55 | 162 | 0.0 | 1.0 | 0.00 | 0.16 | 0.00 | 98 | 1010.6 |
| 20260506013034 | 55 | 162 | 0.0 | 1.0 | 0.00 | 0.16 | 0.00 | 97 | 1010.7 |
| 20260506012533 | 55 | 162 | 1.0 | 2.0 | 0.00 | 0.16 | 0.00 | 97 | 1010.7 |
| 20260506012033 | 55 | 163 | 1.0 | 3.0 | 0.00 | 0.16 | 0.00 | 97 | 1010.7 |
| 20260506011533 | 55 | 355 | 0.0 | 0.0 | 0.00 | 0.16 | 0.00 | 97 | 1010.8 |
| 20260506011035 | 55 | 355 | 0.0 | 0.0 | 0.00 | 0.16 | 0.00 | 97 | 1010.9 |
| 20260506005533 | 55 | 355 | 0.0 | 0.0 | 0.00 | 0.16 | 0.00 | 97 | 1010.8 |
| 20260506005033 | 55 | 355 | 0.0 | 0.0 | 0.00 | 0.16 | 0.00 | 97 | 1010.8 |
| 20260506004534 | 55 | 355 | 0.0 | 0.0 | 0.00 | 0.16 | 0.00 | 97 | 1010.9 |
| 20260506004048 | 55 | 355 | 1.0 | 2.0 | 0.00 | 0.16 | 0.00 | 97 | 1010.9 |
| 20260506003533 | 55 | 220 | 0.0 | 2.0 | 0.00 | 0.16 | 0.00 | 97 | 1011.1 |
| 20260506003033 | 55 | 220 | 1.0 | 2.0 | 0.00 | 0.16 | 0.00 | 97 | 1011.2 |
| 20260506002033 | 55 | 257 | 1.0 | 2.0 | 0.00 | 0.16 | 0.00 | 97 | 1011.1 |
| 20260506001533 | 55 | 256 | 2.0 | 2.0 | 0.00 | 0.16 | 0.00 | 97 | 1011.3 |
| 20260506001034 | 55 | 216 | 0.0 | 0.0 | 0.00 | 0.16 | 0.00 | 97 | 1011.2 |
| 20260506000533 | 55 | 216 | 2.0 | 3.0 | 0.00 | 0.16 | 0.00 | 97 | 1011.3 |
| 20260506000033 | 55 | 84 | 0.0 | 0.0 | 0.00 | 0.16 | 0.00 | 97 | 1011.3 |
| 20260505235033 | 55 | 84 | 1.0 | 2.0 | 0.00 | 0.16 | 0.00 | 97 | 1011.3 |
| 20260505234033 | 55 | 183 | 1.0 | 3.0 | 0.00 | 0.16 | 0.00 | 97 | 1011.4 |
| 20260505233033 | 55 | 113 | 3.0 | 3.0 | 0.00 | 0.16 | 0.00 | 97 | 1011.5 |
| 20260505232533 | 55 | 104 | 2.0 | 3.0 | 0.00 | 0.16 | 0.00 | 97 | 1011.6 |
| 20260505232032 | 55 | 86 | 3.0 | 5.0 | 0.00 | 0.16 | 0.00 | 97 | 1011.6 |
| 20260505231532 | 55 | 93 | 2.0 | 5.0 | 0.00 | 0.16 | 0.00 | 97 | 1011.6 |
| 20260505230535 | 55 | 71 | 1.0 | 3.0 | 0.00 | 0.16 | 0.00 | 97 | 1011.5 |
| 20260505230036 | 55 | 71 | 2.0 | 3.0 | 0.00 | 0.16 | 0.00 | 97 | 1011.5 |
| 20260505225033 | 55 | 73 | 2.0 | 3.0 | 0.00 | 0.16 | 0.00 | 97 | 1011.6 |
| 20260505224033 | 55 | 72 | 2.0 | 3.0 | 0.00 | 0.16 | 0.00 | 97 | 1011.5 |
| 20260505223533 | 55 | 63 | 3.0 | 5.0 | 0.00 | 0.16 | 0.00 | 97 | 1011.6 |
| 20260505222533 | 55 | 91 | 2.0 | 3.0 | 0.00 | 0.16 | 0.00 | 97 | 1011.6 |
| 20260505222033 | 55 | 84 | 3.0 | 6.0 | 0.00 | 0.16 | 0.00 | 96 | 1011.6 |
| 20260505221536 | 55 | 88 | 3.0 | 5.0 | 0.00 | 0.16 | 0.00 | 96 | 1011.5 |
| 20260505221033 | 55 | 90 | 3.0 | 5.0 | 0.00 | 0.16 | 0.00 | 96 | 1011.6 |
| 20260505220534 | 55 | 81 | 4.0 | 6.0 | 0.00 | 0.16 | 0.00 | 96 | 1011.6 |
| 20260505215033 | 55 | 93 | 4.0 | 5.0 | 0.00 | 0.16 | 0.16 | 96 | 1011.7 |
| 20260505214533 | 55 | 98 | 2.0 | 3.0 | 0.00 | 0.16 | 0.16 | 96 | 1011.8 |
| 20260505214032 | 55 | 81 | 2.0 | 5.0 | 0.00 | 0.16 | 0.16 | 96 | 1011.9 |
| 20260505213535 | 55 | 86 | 3.0 | 5.0 | 0.00 | 0.16 | 0.16 | 96 | 1012.0 |
| 20260505213034 | 55 | 89 | 3.0 | 6.0 | 0.00 | 0.16 | 0.16 | 96 | 1012.1 |
| 20260505212533 | 55 | 86 | 3.0 | 6.0 | 0.00 | 0.16 | 0.16 | 95 | 1012.2 |
| 20260505212032 | 55 | 97 | 3.0 | 6.0 | 0.00 | 0.16 | 0.16 | 95 | 1012.2 |
| 20260505211036 | 56 | 79 | 3.0 | 7.0 | 0.00 | 0.16 | 0.16 | 95 | 1012.3 |
| 20260505210533 | 56 | 77 | 3.0 | 6.0 | 0.00 | 0.16 | 0.16 | 95 | 1012.3 |
| 20260505210040 | 56 | 78 | 3.0 | 5.0 | 0.00 | 0.16 | 0.16 | 95 | 1012.3 |
| 20260505205534 | 56 | 62 | 5.0 | 6.0 | 0.00 | 0.16 | 0.16 | 95 | 1012.3 |
| 20260505204548 | 56 | 86 | 4.0 | 6.0 | 0.00 | 0.16 | 0.16 | 94 | 1012.3 |
| 20260505204032 | 56 | 79 | 5.0 | 7.0 | 0.00 | 0.16 | 0.16 | 94 | 1012.3 |
| 20260505203534 | 56 | 83 | 3.0 | 7.0 | 0.00 | 0.16 | 0.16 | 94 | 1012.4 |
| 20260505203032 | 56 | 69 | 5.0 | 7.0 | 0.00 | 0.16 | 0.16 | 94 | 1012.3 |
| 20260505202533 | 56 | 71 | 2.0 | 8.0 | 0.00 | 0.16 | 0.16 | 94 | 1012.3 |
| 20260505201533 | 57 | 78 | 3.0 | 5.0 | 0.00 | 0.16 | 0.16 | 93 | 1012.3 |
| 20260505201033 | 57 | 64 | 3.0 | 6.0 | 0.00 | 0.16 | 0.16 | 93 | 1012.3 |
| 20260505200536 | 57 | 64 | 3.0 | 6.0 | 0.00 | 0.16 | 0.16 | 93 | 1012.3 |
| 20260505200048 | 57 | 78 | 3.0 | 7.0 | 0.00 | 0.16 | 0.16 | 92 | 1012.2 |
| 20260505195532 | 57 | 86 | 3.0 | 5.0 | 0.00 | 0.16 | 0.16 | 92 | 1012.2 |
| 20260505195034 | 57 | 82 | 3.0 | 7.0 | 0.00 | 0.16 | 0.16 | 92 | 1012.2 |
| 20260505194533 | 58 | 70 | 3.0 | 8.0 | 0.00 | 0.16 | 0.16 | 91 | 1012.1 |
| 20260505194033 | 58 | 76 | 3.0 | 5.0 | 0.00 | 0.16 | 0.16 | 91 | 1012.1 |
| 20260505193548 | 58 | 70 | 4.0 | 7.0 | 0.00 | 0.16 | 0.16 | 91 | 1012.1 |
| 20260505193032 | 58 | 80 | 4.0 | 9.0 | 0.00 | 0.16 | 0.16 | 91 | 1012.0 |
| 20260505192532 | 58 | 71 | 4.0 | 7.0 | 0.00 | 0.16 | 0.16 | 90 | 1012.0 |
| 20260505192035 | 58 | 69 | 4.0 | 6.0 | 0.00 | 0.16 | 0.16 | 90 | 1012.0 |
| 20260505191533 | 59 | 64 | 4.0 | 7.0 | 0.00 | 0.16 | 0.16 | 90 | 1012.0 |
| 20260505191032 | 59 | 77 | 5.0 | 8.0 | 0.00 | 0.16 | 0.16 | 90 | 1012.0 |
| 20260505190533 | 59 | 67 | 5.0 | 8.0 | 0.00 | 0.16 | 0.16 | 90 | 1012.0 |
| 20260505190033 | 59 | 78 | 2.0 | 7.0 | 0.00 | 0.16 | 0.16 | 90 | 1012.0 |
| 20260505185532 | 59 | 58 | 4.0 | 6.0 | 0.00 | 0.16 | 0.16 | 89 | 1011.9 |
| 20260505185032 | 59 | 83 | 5.0 | 7.0 | 0.00 | 0.16 | 0.16 | 89 | 1011.9 |
| 20260505184532 | 59 | 77 | 6.0 | 8.0 | 0.00 | 0.16 | 0.16 | 89 | 1011.8 |
| 20260505184032 | 60 | 71 | 5.0 | 10.0 | 0.00 | 0.16 | 0.16 | 88 | 1011.9 |
| 20260505183533 | 60 | 67 | 4.0 | 7.0 | 0.00 | 0.16 | 0.16 | 88 | 1012.0 |
| 20260505183032 | 60 | 63 | 4.0 | 7.0 | 0.00 | 0.16 | 0.16 | 88 | 1011.9 |
| 20260505182533 | 60 | 61 | 4.0 | 7.0 | 0.00 | 0.16 | 0.16 | 88 | 1011.8 |
| 20260505182032 | 60 | 52 | 2.0 | 3.0 | 0.00 | 0.16 | 0.16 | 87 | 1011.8 |
| 20260505181533 | 60 | 76 | 3.0 | 5.0 | 0.00 | 0.16 | 0.16 | 87 | 1011.7 |
| 20260505181032 | 61 | 65 | 5.0 | 7.0 | 0.00 | 0.16 | 0.16 | 86 | 1011.8 |
| 20260505180532 | 61 | 66 | 4.0 | 7.0 | 0.00 | 0.16 | 0.16 | 86 | 1011.8 |
| 20260505175535 | 61 | 62 | 6.0 | 9.0 | 0.00 | 0.16 | 0.16 | 86 | 1011.7 |
| 20260505175032 | 61 | 62 | 6.0 | 8.0 | 0.00 | 0.16 | 0.16 | 86 | 1011.5 |
| 20260505174532 | 61 | 59 | 6.0 | 8.0 | 0.00 | 0.16 | 0.16 | 86 | 1011.6 |
| 20260505174033 | 61 | 65 | 5.0 | 10.0 | 0.00 | 0.16 | 0.16 | 85 | 1011.6 |
| 20260505173533 | 61 | 70 | 5.0 | 8.0 | 0.00 | 0.16 | 0.16 | 85 | 1011.6 |
| 20260505172531 | 62 | 58 | 5.0 | 10.0 | 0.00 | 0.16 | 0.16 | 85 | 1011.5 |
| 20260505172031 | 62 | 57 | 7.0 | 12.0 | 0.00 | 0.16 | 0.16 | 85 | 1011.5 |
| 20260505171532 | 62 | 64 | 3.0 | 9.0 | 0.00 | 0.16 | 0.16 | 85 | 1011.5 |
| 20260505171032 | 62 | 52 | 5.0 | 12.0 | 0.00 | 0.16 | 0.16 | 85 | 1011.4 |
| 20260505170532 | 62 | 66 | 7.0 | 12.0 | 0.00 | 0.16 | 0.16 | 86 | 1011.4 |
| 20260505170032 | 62 | 80 | 6.0 | 10.0 | 0.00 | 0.16 | 0.16 | 86 | 1011.5 |
| 20260505165533 | 62 | 62 | 8.0 | 12.0 | 0.00 | 0.16 | 0.16 | 86 | 1011.5 |
| 20260505164532 | 62 | 75 | 8.0 | 12.0 | 0.00 | 0.16 | 0.16 | 85 | 1011.5 |
| 20260505164032 | 62 | 70 | 9.0 | 15.0 | 0.00 | 0.16 | 0.16 | 84 | 1011.5 |
| 20260505163532 | 63 | 77 | 8.0 | 13.0 | 0.00 | 0.16 | 0.16 | 84 | 1011.6 |
| 20260505162034 | 63 | 64 | 6.0 | 9.0 | 0.00 | 0.16 | 0.16 | 83 | 1011.5 |
| 20260505161532 | 63 | 60 | 7.0 | 10.0 | 0.00 | 0.16 | 0.16 | 83 | 1011.5 |
| 20260505161035 | 63 | 90 | 7.0 | 12.0 | 0.00 | 0.16 | 0.16 | 83 | 1011.5 |